Location: Saluda
(35.2377°N, 82.3468°W)
Time: 08:20:06
(UTC+00:00)

Vanguard 2 - Pass Details

Date: 10 October 2022
Orbit: 553 x 2933 km, 32.9° (Epoch: 04 December)

Event Time Altitude Azimuth Distance (km) Brightness Sun altitude
Rises 23:07:27 0° 279° (W) 5,845 13.9 -2.2°
Reaches altitude 10° 23:11:40 10° 269° (W) 5,128 13.7 -3.1°
Maximum altitude 23:24:18 30° 217° (SW) 4,214 11.8 -5.6°
Drops below altitude 10° 23:38:24 10° 164° (SSE) 5,674 11.8 -8.5°
Sets 23:43:30 0° 154° (SSE) 6,533 12.0 -9.5°
